Regional Weather Roundup
Issued by NWS

Home | Current Version | Previous Version | Graphics & Text | Print | Product List | Glossary On
Versions: 1 2 3 4 5 6 7 8 9 10 11 12 13 14 15 16 17 18 19 20 21 22 23 24 25 26 27 28 29 30 31 32 33 34 35 36 37 38 39 40 41 42 43 44 45 46 47 48 49 50
672
ASUS43 KLMK 110910
RWRKY
KENTUCKY REGIONAL WEATHER ROUNDUP
NATIONAL WEATHER SERVICE LOUISVILLE KY
400 AM EST SUN DEC 11 2016

NOTE "FAIR" INDICATES FEW OR NO CLOUDS BELOW 12,000 FEET
WITH NO SIGNIFICANT WEATHER AND/OR OBSTRUCTIONS TO VISIBILITY.

KYZ001>023-026-027-061>063-070>075-111000-
WESTERN AND SOUTH CENTRAL KENTUCKY

CITY           SKY/WX    TMP DP  RH WIND       PRES   REMARKS
PADUCAH        CLOUDY    40  16  37 S9        30.22F WCI  34
HENDERSON      CLOUDY    34  18  51 SE6       30.24F WCI  29
OWENSBORO      CLOUDY    33  19  56 SE7       30.28F WCI  27
HOPKINSVILLE   CLOUDY    35  15  44 S7        30.28R WCI  29
BOWLING GREEN  CLOUDY    32  18  56 SE6       30.30F WCI  26
GLASGOW        CLOUDY    31  18  59 S5        30.30F WCI  26
$$

KYZ024-025-028>034-038-045-046-053-111000-
NORTH CENTRAL KENTUCKY

CITY           SKY/WX    TMP DP  RH WIND       PRES   REMARKS
LOUISVILLE/SDF CLOUDY    32  16  51 E5        30.30S WCI  27
LOUISVILLE/LOU CLOUDY    32  17  54 CALM      30.30F
FORT KNOX      CLOUDY    32  17  53 S9        30.25F WCI  25
$$

KYZ035>037-039>044-047>052-055>060-089>105-111000-
NORTHEAST KENTUCKY

CITY           SKY/WX    TMP DP  RH WIND       PRES   REMARKS
LEXINGTON      PTCLDY    30  15  53 S10       30.29F WCI  21
COVINGTON      CLOUDY    29  17  61 E8        30.30F WCI  21
FRANKFORT      CLOUDY    31  16  54 CALM      30.29F
$$

KYZ054-064>069-076>088-106>120-111000-
SOUTHEAST KENTUCKY

CITY           SKY/WX    TMP DP  RH WIND       PRES   REMARKS
JACKSON        CLOUDY    27  15  61 S3        30.32F
LONDON         PTCLDY    24  16  71 CALM      30.33F
SOMERSET       PTCLDY    23  18  80 CALM      30.35F
MIDDLESBORO    CLOUDY    22  20  91 CALM      30.37F
MONTICELLO     CLOUDY    23  16  74 CALM      30.34F
$$





USA.gov is the U.S. government's official web portal to all federal, state and local government web resources and services.